Regional Weather Roundup
Issued by NWS

Home | Current Version | Previous Version | Text Only | Print | Product List | Glossary On
Versions: 1 2 3 4 5 6 7 8 9 10 11 12 13 14 15 16 17 18 19 20 21 22 23 24 25 26 27 28 29 30 31 32 33 34 35 36 37 38 39 40 41 42 43 44 45 46 47 48 49 50
000
ASUS43 KMKX 260321
RWRWI

WISCONSIN REGIONAL WEATHER ROUNDUP
NATIONAL WEATHER SERVICE MILWAUKEE/SULLIVAN WI
1000 PM CDT TUE APR 25 2017

NOTE: "FAIR" INDICATES FEW OR NO CLOUDS BELOW 12,000 FEET WITH NO
SIGNIFICANT WEATHER AND/OR OBSTRUCTIONS TO VISIBILITY.

WIZ001-002-006>008-014>016-023>028-260400-
NORTHWEST WISCONSIN

CITY           SKY/WX    TMP DP  RH WIND       PRES   REMARKS
SUPERIOR ARPT  LGT RAIN  40  39  97 E13       29.75R WCI  32
ASHLAND        CLOUDY    37  33  85 NE20G26   29.77R WCI  27
HAYWARD        RAIN      39  36  89 NE15G22   29.69S FOG     WCI  31
SIREN          RAIN      42  40  93 CALM      29.66S
CUMBERLAND     LGT RAIN  45  43  93 NE14      29.61F
RICE LAKE      DRIZZLE   50  48  93 N14       29.60F
CHETEK         DRIZZLE   55  54  99 N6        29.58F
LADYSMITH      DRIZZLE   49  47  92 N14       29.64S
EAU CLAIRE     CLOUDY    55  54  96 NE8       29.55S
MENOMONIE      CLOUDY    55  55 100 N7        29.56S
NEW RICHMOND   RAIN      53  52  97 N9        29.58S
OSCEOLA        DRIZZLE   50  50 100 NE8       29.62S
$$

WIZ003>005-009-010-017-018-260400-
NORTH CENTRAL WISCONSIN

CITY           SKY/WX    TMP DP  RH WIND       PRES   REMARKS
MANITOWISH WTR LGT RAIN  40  40 100 N8        29.69R
ARBOR VITAE    RAIN      52  48  88 N8G16     29.67R
WOODRUFF       RAIN      52  48  88 N8G16     29.67R
RHINELANDER    LGT RAIN  56  53  90 CALM      29.65R
EAGLE RIVER    LGT RAIN  54  54  99 CALM      29.66R
LAND O LAKES   RAIN      46  40  80 N7        29.69R
PHILLIPS       DRIZZLE   43  42  99 N9        29.64F
TOMAHAWK       CLOUDY    54  52  93 CALM      29.64S
MEDFORD        LGT RAIN  53  51  95 N7        29.59S
MERRILL        LGT RAIN  55  54  99 NE7       29.61S
$$

WIZ029-030-035-036-043>047-260400-
CENTRAL WISCONSIN

CITY           SKY/WX    TMP DP  RH WIND       PRES   REMARKS
WAUSAU         CLOUDY    57  52  83 CALM      29.59R
MOSINEE        CLOUDY    55  54  94 NE8       29.61R
MARSHFIELD     CLOUDY    56  51  84 NE10      29.56F
STEVENS POINT  CLOUDY    58  47  67 N6        29.59S
WAUPACA        CLOUDY    65  51  61 E7        29.58S
WAUTOMA        CLOUDY    65  51  60 E8        29.56S
WISC RAPIDS    CLOUDY    61  50  67 NE8       29.57F
CAMP DOUGLAS   CLOUDY    59  52  77 NE3       29.52F
$$

WIZ011>013-019>022-031-037>040-048>050-260400-
NORTHEAST WISCONSIN

CITY           SKY/WX    TMP DP  RH WIND       PRES   REMARKS
ANTIGO         CLOUDY    55  51  84 CALM      29.64S
SHAWANO        CLOUDY    62  50  64 SE5       29.61S
OCONTO         CLOUDY    58  51  76 E10       29.63R
STURGEON BAY   CLOUDY    51  46  83 E12       29.65S
GREEN BAY      CLOUDY    64  54  69 SE5       29.61S
MANITOWOC      MOCLDY    53  48  83 CALM      29.62S
APPLETON       MOCLDY    61  48  63 SE8       29.58F
CLINTONVILLE   CLOUDY    61  50  67 E5        29.59F
OSHKOSH        CLOUDY    62  52  69 SE9       29.57F
$$

WIZ032>034-041-042-053>061-260400-
SOUTHWEST WISCONSIN

CITY           SKY/WX    TMP DP  RH WIND       PRES   REMARKS
LA CROSSE      CLOUDY    60  52  74 N3        29.50F
SPARTA         CLOUDY    56  53  88 NE3       29.53F
VIROQUA        CLOUDY    59  50  72 E10       29.50F
BOSCOBEL       LGT RAIN  66  49  54 CALM      29.47F
PRAIRIE DU CHI CLOUDY    65  46  49 SE3       29.45F
PLATTEVILLE    CLOUDY    67  48  49 E8        29.48F
$$

WIZ056-057-062-063-064-067-068-260400-
SOUTH CENTRAL WISCONSIN

CITY           SKY/WX    TMP DP  RH WIND       PRES   REMARKS
REEDSBURG      CLOUDY    66  51  57 E8        29.51F
BARABOO/DELLS  CLOUDY    65  48  53 E10       29.52S
LONE ROCK      CLOUDY    67  50  54 E9        29.48F
MINERAL POINT  CLOUDY    68  45  42 SE7       29.49F
MADISON        CLOUDY    66  50  56 SE12      29.52S
MIDDLETON      CLOUDY    66  51  56 SE9       29.52F
WATERTOWN      CLOUDY    65  53  66 E13G18    29.55F
MONROE         CLOUDY    68  46  45 SE9       29.51F
JANESVILLE     CLOUDY    64  50  59 SE8       29.53S
$$

WIZ051-052-058>065-066-070>072-260400-
SOUTHEAST WISCONSIN

CITY           SKY/WX    TMP DP  RH WIND       PRES   REMARKS
MILWAUKEE      CLOUDY    58  50  75 SE7       29.60R
WAUKESHA       NOT AVBL
MILWAUKEE/TIMM CLOUDY    59  46  63 SE7       29.60S
RACINE         CLOUDY    61  50  67 S12       29.61R
KENOSHA        CLOUDY    61  50  67 SE9       29.58S
FOND DU LAC    CLOUDY    63  50  62 SE16      29.57F
SHEBOYGAN      CLOUDY    52  48  86 NE5       29.61S
WEST BEND      MOCLDY    57  50  77 SE5       29.60S
JUNEAU         CLOUDY    62  52  69 E12       29.57S
$$

LSZ147-162-260400-
LAKE SUPERIOR

STATION/POSITION TIME  TEMP    WIND        PRES    WAVE
                       AIR SEA DIR/SP/G            HT/PER
                 (UTC) (F)     (DEG/KT/KT) (MB)    (FT/S)
DEVILS ISLAND    0300   37      40/ 14/ 15 1009.1R
SAXON HARBOR     0240   37      40/ 19/ 22 1007.8R
$$

LMZ867-665-643>646-260400-
LAKE MICHIGAN

STATION/POSITION TIME  TEMP    WIND        PRES    WAVE
                       AIR SEA DIR/SP/G            HT/PER
                 (UTC) (F)     (DEG/KT/KT) (MB)    (FT/S)
CHAMBERS ISLAND  0240   47      40/  9/ 10 1004.4R
N MID LAKE BUOY  0250   40 37   70/  8/ 10 1006.3R   1/ 3
NORTHPORT PIER   0240   43     110/  4/  7 1005.1S
SISTER BAY       0221   48     100/ 13/ 18   N/A
ALGOMA LAKESHORE 0044             CALM       N/A
KEWAUNEE LAKESHO 0254   45      50/  5/  8 1003.5R
SHEBOYGAN LAKESH 0300   51      20/  4/  5 1002.6F
PORT WASHINGTON  0240   57     160/  3/  4 1003.7S
MILWAUKEE LAKESH 0300   53     140/  5/  6   N/A
S MID LAKE BUOY  0250   50 42   70/ 10/ 10 1002.8R   0
KENOSHA   LAKESH 0300   55     150/ 13/ 13 1001.7
$$

TC  - TEMPERATURE IN CELSIUS
VSB - VISIBILITY IN STATUTE MILES
WCI - WIND CHILL INDEX
HX  - HEAT INDEX




USA.gov is the U.S. government's official web portal to all federal, state and local government web resources and services.